MCX4581 KCHS-KMIA

Flight info

Callsign MCX4581
Flight time 1h 13m
Altitude 32000
Route LGRHD3 GIPPL Q93 DEBRL CSTAL3
Aircraft CRJ7/M-SDFGIRWY/S

Departure

Time 2026-04-24 22:39
Airport Charleston International Airport (KCHS)

Arrival

Time 2026-04-24 23:53
Airport Miami International Airport (KMIA)
Time Latitude Longitude Altitude Speed Heading
2026-04-24 22:06 32.88643 -80.03812 39 ft 0 kts 167°
2026-04-24 22:31 32.88661 -80.03817 39 ft 4 kts 163°
2026-04-24 22:31 32.88686 -80.03828 39 ft 4 kts 153°
2026-04-24 22:31 32.88706 -80.03847 39 ft 4 kts 118°
2026-04-24 22:32 32.88706 -80.03864 39 ft 0 kts 58°
2026-04-24 22:33 32.88709 -80.03858 39 ft 3 kts 58°
2026-04-24 22:34 32.88729 -80.03820 39 ft 8 kts 61°
2026-04-24 22:34 32.88749 -80.03743 39 ft 11 kts 82°
2026-04-24 22:34 32.88778 -80.03647 39 ft 14 kts 36°
2026-04-24 22:34 32.88879 -80.03623 39 ft 16 kts
2026-04-24 22:35 32.88999 -80.03605 39 ft 18 kts
2026-04-24 22:35 32.89130 -80.03597 39 ft 18 kts
2026-04-24 22:35 32.89250 -80.03594 39 ft 18 kts
2026-04-24 22:35 32.89375 -80.03591 39 ft 19 kts
2026-04-24 22:36 32.89490 -80.03587 38 ft 16 kts
2026-04-24 22:36 32.89610 -80.03583 37 ft 18 kts
2026-04-24 22:36 32.89740 -80.03578 37 ft 19 kts
2026-04-24 22:36 32.89853 -80.03574 38 ft 14 kts
2026-04-24 22:37 32.89947 -80.03557 39 ft 14 kts 20°
2026-04-24 22:37 32.90038 -80.03508 39 ft 15 kts 24°
2026-04-24 22:37 32.90134 -80.03463 39 ft 13 kts
2026-04-24 22:37 32.90188 -80.03536 39 ft 13 kts 295°
2026-04-24 22:38 32.90200 -80.03628 41 ft 11 kts 239°
2026-04-24 22:38 32.90126 -80.03677 40 ft 20 kts 204°
2026-04-24 22:38 32.89791 -80.03856 37 ft 85 kts 204°
2026-04-24 22:38 32.89083 -80.04234 39 ft 135 kts 203°
2026-04-24 22:39 32.88168 -80.04738 367 ft 151 kts 205°
2026-04-24 22:39 32.87237 -80.05286 965 ft 148 kts 205°
2026-04-24 22:39 32.86604 -80.05656 1296 ft 159 kts 204°
2026-04-24 22:39 32.85502 -80.06278 1640 ft 190 kts 204°
2026-04-24 22:40 32.84274 -80.07064 2138 ft 211 kts 211°
2026-04-24 22:40 32.83008 -80.08094 2764 ft 228 kts 215°
2026-04-24 22:40 32.81702 -80.09263 3461 ft 241 kts 216°
2026-04-24 22:40 32.80355 -80.10462 4277 ft 248 kts 217°
2026-04-24 22:41 32.78941 -80.11672 5113 ft 253 kts 216°
2026-04-24 22:41 32.77477 -80.12876 5909 ft 258 kts 216°
2026-04-24 22:41 32.75984 -80.14099 6657 ft 263 kts 216°
2026-04-24 22:41 32.74467 -80.15340 7417 ft 266 kts 216°
2026-04-24 22:42 32.72935 -80.16598 8180 ft 269 kts 216°
2026-04-24 22:42 32.71381 -80.17869 8954 ft 272 kts 216°
2026-04-24 22:42 32.69810 -80.19145 9710 ft 275 kts 216°
2026-04-24 22:42 32.68224 -80.20433 10403 ft 278 kts 216°
2026-04-24 22:43 32.66617 -80.21739 11002 ft 286 kts 216°
2026-04-24 22:43 32.64911 -80.23135 11158 ft 309 kts 216°
2026-04-24 22:43 32.63090 -80.24636 11423 ft 328 kts 216°
2026-04-24 22:43 32.61169 -80.26222 11796 ft 342 kts 216°
2026-04-24 22:44 32.59198 -80.27843 12459 ft 346 kts 215°
2026-04-24 22:44 32.57181 -80.29435 13152 ft 350 kts 213°
2026-04-24 22:44 32.55105 -80.30983 13837 ft 354 kts 212°
2026-04-24 22:44 32.53002 -80.32534 14441 ft 358 kts 213°
2026-04-24 22:45 32.50884 -80.34101 15064 ft 361 kts 213°
2026-04-24 22:45 32.48748 -80.35683 15657 ft 364 kts 213°
2026-04-24 22:45 32.46593 -80.37275 16243 ft 367 kts 213°
2026-04-24 22:45 32.44415 -80.38870 16818 ft 370 kts 213°
2026-04-24 22:46 32.42212 -80.40476 17375 ft 373 kts 213°
2026-04-24 22:46 32.40028 -80.42073 17927 ft 376 kts 213°
2026-04-24 22:46 32.37798 -80.43713 18431 ft 379 kts 213°
2026-04-24 22:46 32.35540 -80.45369 18896 ft 383 kts 213°
2026-04-24 22:47 32.33270 -80.47045 19356 ft 386 kts 213°
2026-04-24 22:47 32.30982 -80.48741 19789 ft 390 kts 214°
2026-04-24 22:47 32.28675 -80.50456 20239 ft 393 kts 213°
2026-04-24 22:47 32.26356 -80.52186 20667 ft 396 kts 214°
2026-04-24 22:48 32.24014 -80.53935 21085 ft 399 kts 213°
2026-04-24 22:48 32.21654 -80.55694 21488 ft 402 kts 214°
2026-04-24 22:48 32.19276 -80.57456 21887 ft 406 kts 214°
2026-04-24 22:48 32.16869 -80.59235 22274 ft 409 kts 213°
2026-04-24 22:49 32.14474 -80.60992 22642 ft 412 kts 213°
2026-04-24 22:49 32.12030 -80.62785 23023 ft 415 kts 213°
2026-04-24 22:49 32.09573 -80.64590 23390 ft 418 kts 213°
2026-04-24 22:49 32.07091 -80.66412 23719 ft 420 kts 213°
2026-04-24 22:50 32.04605 -80.68236 24065 ft 421 kts 213°
2026-04-24 22:50 32.02101 -80.70068 24403 ft 423 kts 213°
2026-04-24 22:50 31.99597 -80.71898 24734 ft 424 kts 213°
2026-04-24 22:50 31.97081 -80.73733 25052 ft 426 kts 213°
2026-04-24 22:51 31.94590 -80.75545 25363 ft 427 kts 213°
2026-04-24 22:51 31.92056 -80.77381 25661 ft 428 kts 213°
2026-04-24 22:51 31.89509 -80.79228 25947 ft 430 kts 213°
2026-04-24 22:51 31.86963 -80.81078 26232 ft 431 kts 213°
2026-04-24 22:52 31.84399 -80.82940 26513 ft 432 kts 213°
2026-04-24 22:52 31.81835 -80.84803 26779 ft 434 kts 213°
2026-04-24 22:52 31.79260 -80.86670 27047 ft 435 kts 213°
2026-04-24 22:52 31.76679 -80.88542 27307 ft 436 kts 213°
2026-04-24 22:53 31.74095 -80.90427 27558 ft 438 kts 213°
2026-04-24 22:53 31.71508 -80.92319 27815 ft 439 kts 213°
2026-04-24 22:53 31.68906 -80.94211 28055 ft 440 kts 213°
2026-04-24 22:53 31.66319 -80.96078 28286 ft 442 kts 213°
2026-04-24 22:54 31.63697 -80.97976 28520 ft 443 kts 213°
2026-04-24 22:54 31.61075 -80.99886 28728 ft 444 kts 213°
2026-04-24 22:54 31.58440 -81.01799 28969 ft 446 kts 213°
2026-04-24 22:54 31.55793 -81.03716 29200 ft 446 kts 213°
2026-04-24 22:55 31.53179 -81.05604 29812 ft 438 kts 213°
2026-04-24 22:55 31.50598 -81.07466 30161 ft 435 kts 213°
2026-04-24 22:55 31.48020 -81.09332 30378 ft 435 kts 213°
2026-04-24 22:55 31.45442 -81.11195 30582 ft 435 kts 213°
2026-04-24 22:56 31.42894 -81.13038 30780 ft 435 kts 213°
2026-04-24 22:56 31.40196 -81.14631 30949 ft 437 kts 199°
2026-04-24 22:56 31.37202 -81.15338 31123 ft 439 kts 189°
2026-04-24 22:56 31.34158 -81.15725 31310 ft 440 kts 186°
2026-04-24 22:57 31.31096 -81.15830 31484 ft 441 kts 178°
2026-04-24 22:57 31.28035 -81.15485 31664 ft 442 kts 173°
2026-04-24 22:57 31.24991 -81.14985 31818 ft 443 kts 173°
2026-04-24 22:57 31.21919 -81.14490 31888 ft 446 kts 174°
2026-04-24 22:58 31.15738 -81.13739 31937 ft 453 kts 176°
2026-04-24 22:58 31.09409 -81.13024 31947 ft 461 kts 175°
2026-04-24 22:59 31.02988 -81.12242 31951 ft 466 kts 175°
2026-04-24 23:00 30.93235 -81.11063 31949 ft 473 kts 175°
2026-04-24 23:00 30.86659 -81.10276 31954 ft 476 kts 175°
2026-04-24 23:01 30.80083 -81.09486 31947 ft 479 kts 175°
2026-04-24 23:01 30.73426 -81.08687 31953 ft 481 kts 175°
2026-04-24 23:02 30.66747 -81.07889 31958 ft 482 kts 175°
2026-04-24 23:02 30.60050 -81.07477 31954 ft 480 kts 182°
2026-04-24 23:03 30.53388 -81.07915 31953 ft 479 kts 186°
2026-04-24 23:03 30.46776 -81.08409 31952 ft 479 kts 184°
2026-04-24 23:04 30.40110 -81.08811 31956 ft 478 kts 185°
2026-04-24 23:04 30.33460 -81.09211 31952 ft 478 kts 185°
2026-04-24 23:05 30.26808 -81.09610 31954 ft 478 kts 185°
2026-04-24 23:05 30.20211 -81.10005 31957 ft 477 kts 185°
2026-04-24 23:06 30.13567 -81.10402 31961 ft 477 kts 185°
2026-04-24 23:06 30.06940 -81.10799 31964 ft 477 kts 185°
2026-04-24 23:07 30.00311 -81.11195 31965 ft 476 kts 185°
2026-04-24 23:07 29.93697 -81.11587 31964 ft 476 kts 186°
2026-04-24 23:08 29.87130 -81.11978 31966 ft 475 kts 186°
2026-04-24 23:08 29.80511 -81.12331 31963 ft 475 kts 184°
2026-04-24 23:09 29.73891 -81.12311 31964 ft 476 kts 183°
2026-04-24 23:09 29.67256 -81.12279 31966 ft 475 kts 184°
2026-04-24 23:10 29.60691 -81.12311 31967 ft 475 kts 184°
2026-04-24 23:10 29.54082 -81.12432 31969 ft 473 kts 186°
2026-04-24 23:11 29.47496 -81.12710 31970 ft 473 kts 186°
2026-04-24 23:11 29.40912 -81.12953 31971 ft 472 kts 186°
2026-04-24 23:12 29.34377 -81.13191 31958 ft 473 kts 185°
2026-04-24 23:12 29.27790 -81.12216 31960 ft 480 kts 174°
2026-04-24 23:13 29.21275 -81.10453 31975 ft 485 kts 167°
2026-04-24 23:13 29.14878 -81.07886 31974 ft 486 kts 165°
2026-04-24 23:14 29.08512 -81.05437 31970 ft 485 kts 167°
2026-04-24 23:14 29.02081 -81.03039 31971 ft 486 kts 167°
2026-04-24 23:15 28.95653 -81.00636 31968 ft 486 kts 167°
2026-04-24 23:15 28.89225 -80.98241 31965 ft 486 kts 167°
2026-04-24 23:16 28.82795 -80.95843 31964 ft 486 kts 167°
2026-04-24 23:16 28.76353 -80.93432 31951 ft 487 kts 166°
2026-04-24 23:17 28.70019 -80.90578 31950 ft 491 kts 161°
2026-04-24 23:17 28.63796 -80.87468 31974 ft 491 kts 162°
2026-04-24 23:18 28.57502 -80.84467 31980 ft 490 kts 162°
2026-04-24 23:18 28.51199 -80.81470 31979 ft 491 kts 162°
2026-04-24 23:19 28.44886 -80.78472 31980 ft 491 kts 162°
2026-04-24 23:19 28.38586 -80.75483 31975 ft 491 kts 162°
2026-04-24 23:20 28.32314 -80.72517 31943 ft 491 kts 162°
2026-04-24 23:20 28.25994 -80.69524 31940 ft 491 kts 162°
2026-04-24 23:21 28.19631 -80.66720 31941 ft 487 kts 167°
2026-04-24 23:21 28.13136 -80.64816 31968 ft 484 kts 172°
2026-04-24 23:22 28.06590 -80.62957 31967 ft 485 kts 169°
2026-04-24 23:22 28.00044 -80.60989 31967 ft 485 kts 170°
2026-04-24 23:23 27.93503 -80.59034 31966 ft 486 kts 170°
2026-04-24 23:23 27.87004 -80.57092 31966 ft 486 kts 170°
2026-04-24 23:24 27.80465 -80.55139 31972 ft 486 kts 170°
2026-04-24 23:24 27.73919 -80.53189 32028 ft 487 kts 169°
2026-04-24 23:25 27.67331 -80.51235 31984 ft 490 kts 168°
2026-04-24 23:25 27.60804 -80.48862 31981 ft 495 kts 162°
2026-04-24 23:26 27.54336 -80.46127 31981 ft 497 kts 163°
2026-04-24 23:26 27.47804 -80.43543 31980 ft 498 kts 163°
2026-04-24 23:27 27.41291 -80.40968 31980 ft 499 kts 163°
2026-04-24 23:27 27.34726 -80.38370 31975 ft 501 kts 163°
2026-04-24 23:28 27.28137 -80.35773 31970 ft 502 kts 163°
2026-04-24 23:28 27.22677 -80.33617 31969 ft 496 kts 163°
2026-04-24 23:28 27.19428 -80.32344 31778 ft 493 kts 164°
2026-04-24 23:29 27.16206 -80.31102 31132 ft 486 kts 164°
2026-04-24 23:29 27.13023 -80.29864 30484 ft 480 kts 164°
2026-04-24 23:29 27.09882 -80.28640 29809 ft 475 kts 164°
2026-04-24 23:29 27.06774 -80.27433 29068 ft 470 kts 164°
2026-04-24 23:30 27.03690 -80.26235 28344 ft 466 kts 164°
2026-04-24 23:30 27.00644 -80.25057 27642 ft 462 kts 164°
2026-04-24 23:30 26.97618 -80.23882 26959 ft 458 kts 163°
2026-04-24 23:30 26.94730 -80.22762 26328 ft 454 kts 163°
2026-04-24 23:31 26.91762 -80.21615 25662 ft 450 kts 163°
2026-04-24 23:31 26.88811 -80.20472 25025 ft 447 kts 163°
2026-04-24 23:31 26.85919 -80.19362 24410 ft 443 kts 164°
2026-04-24 23:31 26.83008 -80.18278 23809 ft 440 kts 164°
2026-04-24 23:32 26.80117 -80.17203 23191 ft 433 kts 164°
2026-04-24 23:32 26.77287 -80.16154 22530 ft 424 kts 164°
2026-04-24 23:32 26.74513 -80.15127 21884 ft 416 kts 164°
2026-04-24 23:32 26.71789 -80.14116 21248 ft 409 kts 164°
2026-04-24 23:33 26.69081 -80.13225 20626 ft 401 kts 169°
2026-04-24 23:33 26.66378 -80.12534 20019 ft 395 kts 171°
2026-04-24 23:33 26.63705 -80.11888 19426 ft 391 kts 171°
2026-04-24 23:33 26.61060 -80.11230 18854 ft 387 kts 170°
2026-04-24 23:34 26.58487 -80.10562 18282 ft 383 kts 169°
2026-04-24 23:34 26.55901 -80.09886 17630 ft 379 kts 169°
2026-04-24 23:34 26.53330 -80.09227 16985 ft 376 kts 170°
2026-04-24 23:34 26.50781 -80.08590 16357 ft 373 kts 170°
2026-04-24 23:35 26.48252 -80.07966 15731 ft 370 kts 170°
2026-04-24 23:35 26.45758 -80.07356 15233 ft 364 kts 171°
2026-04-24 23:35 26.43308 -80.06798 14644 ft 362 kts 172°
2026-04-24 23:35 26.40843 -80.06272 14063 ft 360 kts 172°
2026-04-24 23:36 26.38388 -80.05729 13444 ft 358 kts 171°
2026-04-24 23:36 26.35969 -80.05126 12792 ft 355 kts 169°
2026-04-24 23:36 26.33610 -80.04471 12578 ft 340 kts 168°
2026-04-24 23:36 26.31369 -80.03837 12456 ft 325 kts 168°
2026-04-24 23:37 26.29223 -80.03222 12324 ft 312 kts 168°
2026-04-24 23:37 26.27153 -80.02639 12163 ft 302 kts 168°
2026-04-24 23:37 26.23085 -80.02519 11466 ft 291 kts 194°
2026-04-24 23:38 26.21117 -80.03003 11212 ft 288 kts 196°
2026-04-24 23:38 26.19192 -80.03522 11100 ft 289 kts 196°
2026-04-24 23:38 26.17230 -80.04057 11076 ft 291 kts 195°
2026-04-24 23:38 26.15253 -80.04546 11093 ft 291 kts 194°
2026-04-24 23:39 26.13269 -80.05002 11090 ft 291 kts 194°
2026-04-24 23:39 26.11284 -80.05456 11093 ft 292 kts 194°
2026-04-24 23:39 26.09295 -80.05914 11094 ft 292 kts 194°
2026-04-24 23:39 26.07304 -80.06374 11096 ft 292 kts 194°
2026-04-24 23:40 26.05316 -80.06843 11060 ft 294 kts 194°
2026-04-24 23:40 26.03291 -80.07330 10817 ft 300 kts 195°
2026-04-24 23:40 26.01257 -80.07843 10564 ft 299 kts 195°
2026-04-24 23:40 25.99230 -80.08364 10333 ft 298 kts 195°
2026-04-24 23:41 25.97244 -80.08877 10139 ft 295 kts 195°
2026-04-24 23:41 25.95255 -80.09393 9954 ft 292 kts 195°
2026-04-24 23:41 25.93283 -80.09911 9754 ft 290 kts 197°
2026-04-24 23:41 25.91543 -80.10937 9557 ft 281 kts 223°
2026-04-24 23:42 25.90178 -80.12479 9354 ft 278 kts 230°
2026-04-24 23:42 25.88920 -80.14102 9155 ft 276 kts 232°
2026-04-24 23:42 25.87985 -80.15921 8945 ft 270 kts 258°
2026-04-24 23:42 25.87741 -80.17974 8752 ft 267 kts 268°
2026-04-24 23:43 25.87696 -80.20000 8553 ft 265 kts 271°
2026-04-24 23:43 25.87712 -80.22067 8350 ft 264 kts 271°
2026-04-24 23:43 25.87721 -80.24059 8266 ft 258 kts 270°
2026-04-24 23:43 25.87677 -80.26038 8200 ft 253 kts 269°
2026-04-24 23:44 25.87605 -80.27898 8233 ft 231 kts 269°
2026-04-24 23:44 25.87826 -80.29599 8039 ft 220 kts 291°
2026-04-24 23:44 25.88464 -80.31167 7414 ft 226 kts 298°
2026-04-24 23:44 25.89234 -80.32693 6822 ft 225 kts 301°
2026-04-24 23:45 25.90023 -80.34195 6208 ft 225 kts 301°
2026-04-24 23:45 25.90804 -80.35700 5561 ft 224 kts 300°
2026-04-24 23:45 25.91547 -80.37194 4931 ft 224 kts 299°
2026-04-24 23:45 25.92287 -80.38707 4273 ft 223 kts 298°
2026-04-24 23:46 25.93024 -80.40226 3634 ft 222 kts 298°
2026-04-24 23:46 25.93714 -80.41750 3277 ft 219 kts 288°
2026-04-24 23:46 25.93853 -80.43405 3117 ft 215 kts 269°
2026-04-24 23:46 25.93818 -80.45016 3052 ft 201 kts 267°
2026-04-24 23:47 25.93763 -80.46537 3016 ft 193 kts 268°
2026-04-24 23:47 25.93882 -80.47991 2984 ft 184 kts 268°
2026-04-24 23:47 25.93394 -80.49183 2948 ft 173 kts 216°
2026-04-24 23:47 25.92231 -80.49477 2964 ft 182 kts 166°
2026-04-24 23:48 25.91097 -80.48773 3002 ft 194 kts 146°
2026-04-24 23:48 25.89987 -80.47927 3012 ft 191 kts 144°
2026-04-24 23:48 25.88938 -80.47039 3010 ft 188 kts 133°
2026-04-24 23:48 25.88166 -80.45861 3015 ft 191 kts 124°
2026-04-24 23:49 25.87417 -80.44626 2915 ft 197 kts 123°
2026-04-24 23:49 25.86693 -80.43386 2684 ft 186 kts 122°
2026-04-24 23:49 25.86053 -80.42180 2417 ft 177 kts 120°
2026-04-24 23:49 25.85468 -80.41045 2178 ft 153 kts 120°
2026-04-24 23:50 25.84984 -80.40098 1963 ft 138 kts 120°
2026-04-24 23:50 25.84504 -80.39174 1785 ft 138 kts 120°
2026-04-24 23:50 25.84024 -80.38234 1604 ft 142 kts 119°
2026-04-24 23:50 25.83530 -80.37282 1408 ft 143 kts 121°
2026-04-24 23:51 25.83022 -80.36329 1238 ft 144 kts 120°
2026-04-24 23:51 25.82535 -80.35355 1061 ft 145 kts 118°
2026-04-24 23:51 25.82048 -80.34378 884 ft 147 kts 119°
2026-04-24 23:51 25.81547 -80.33396 711 ft 146 kts 120°
2026-04-24 23:52 25.81057 -80.32400 511 ft 146 kts 121°
2026-04-24 23:52 25.80551 -80.31434 308 ft 143 kts 120°
2026-04-24 23:52 25.80073 -80.30516 90 ft 132 kts 120°
2026-04-24 23:52 25.79656 -80.29686 13 ft 105 kts 120°
2026-04-24 23:53 25.79427 -80.29245 13 ft 20 kts 118°
2026-04-24 23:53 25.79405 -80.29118 12 ft 8 kts 77°
2026-04-24 23:53 25.79419 -80.29088 13 ft 10 kts 50°
2026-04-24 23:53 25.79432 -80.29075 13 ft 0 kts 35°
2026-04-24 23:55 25.79456 -80.29073 13 ft 8 kts 350°
2026-04-24 23:55 25.79525 -80.29051 13 ft 13 kts 59°
2026-04-24 23:55 25.79495 -80.28949 13 ft 16 kts 119°
2026-04-24 23:56 25.79444 -80.28851 13 ft 14 kts 120°
2026-04-24 23:56 25.79443 -80.28803 13 ft 5 kts 11°
2026-04-24 23:56 25.79505 -80.28805 13 ft 13 kts 357°
2026-04-24 23:56 25.79604 -80.28810 13 ft 14 kts 358°
2026-04-24 23:57 25.79694 -80.28814 13 ft 12 kts 358°
2026-04-24 23:57 25.79754 -80.28792 13 ft 8 kts 65°
2026-04-24 23:57 25.79758 -80.28742 13 ft 5 kts 102°
2026-04-24 23:57 25.79745 -80.28721 13 ft 2 kts 142°
2026-04-24 23:58 25.79735 -80.28711 13 ft 1 kts 136°
2026-04-24 23:58 25.79731 -80.28708 13 ft 0 kts 137°